www.pogodaiklimat.ru

Погода и климат >> Архив погоды >> Бразилия >> Минас-Жерайс >> Формига


ПОГОДА в Формиге

  • Прогноз погоды в Формиге
  • Монитор погоды в Формиге

АРХИВ ПОГОДЫ в Формиге

Время (UTC), дата Ветер
(напр.,м/с)
 
Видим.   Явления Облачность Т
(С)
Тd
(С)
f
(%)
Тe
(С)
Тes
(С)
Комфортность P
(гПа)
Po
(гПа)
Тmin
(С)
Tmax
(С)
R
(мм)
R24
(мм)
S
(см)
16 18.05 СЗ 2
{3}
н/о н/о +22.5 +16.4 68 +27 +27 душно 1015.6 917.6
17 18.05 СЗ 2
{3}
н/о н/о +23.6 +16.8 66 +27 +27 жарко 1014.3 916.7
18 18.05 СЗ 1
{3}
н/о н/о +23.0 +16.2 66 +28 +28 душно 1014.4 916.6
19 18.05 СЗ 1
{3}
н/о н/о +22.9 +16.5 67 +28 +28 душно 1014.2 916.4
20 18.05 С 1
{2}
н/о н/о +21.8 +16.3 71 +26 +26 душно 1015.0 916.8
21 18.05 штиль 0
{1}
н/о н/о +19.1 +17.0 88 +21 +21 комфорт 1016.4 917.2
22 18.05 штиль 0
{1}
н/о н/о +18.3 +17.7 96 +19 +19 1017.5 917.9
23 18.05 В 1
{1}
н/о н/о +18.2 +17.4 95 +20 +20 1017.9 918.3
00 19.05 ЮВ 1
{1}
н/о н/о +17.5 +17.3 99 +19 +19 1018.3 918.4
01 19.05 штиль 0
{1}
н/о н/о +16.8 +16.8 100 +17 +17 1018.7 918.5
02 19.05 штиль 0
{1}
н/о н/о +16.1 +16.1 100 +16 +16 1019.0 918.6
03 19.05 штиль 0
{1}
н/о н/о +15.8 +15.7 99 +16 +16 1018.9 918.4
04 19.05 штиль 0
{1}
н/о н/о +15.4 +15.4 100 +15 +15 1018.6 918.0
05 19.05 штиль 0
{1}
н/о н/о +15.6 +15.6 100 +15 +15 1018.2 917.7 0.2
06 19.05 штиль 0
{1}
н/о н/о +14.3 +14.3 100 +14 +14 1018.4 917.4
07 19.05 штиль 0
{1}
н/о н/о +15.4 +15.4 100 +15 +15 1017.9 917.3
08 19.05 штиль 0
{1}
н/о н/о +15.0 +15.0 100 +15 +15 1018.4 917.7
09 19.05 штиль 0
{1}
н/о н/о +12.9 +12.9 100 +12 +12 1019.9 918.3
10 19.05 штиль 0 н/о н/о +13.9 +13.9 100 +13 +13 1020.1 918.8
11 19.05 штиль 0
{1}
н/о н/о +15.0 +15.0 100 +15 +15 1020.1 919.2
12 19.05 ЮЗ 1
{2}
н/о н/о +16.1 +16.1 100 +17 +17 1020.3 919.7
13 19.05 ЮЗ 1
{2}
н/о н/о +18.9 +18.9 100 +22 +22 комфорт 1019.1 919.6
14 19.05 ЮЗ 1
{2}
н/о н/о +21.1 +17.9 82 +25 +25 комфорт 1017.7 919.0
15 19.05 В 1
{2}
н/о н/о +23.9 +17.9 69 +28 +28 душно 1015.8 918.2
16 19.05 З 1
{3}
н/о н/о +24.4 +17.6 66 +28 +28 душно 1014.7 917.3
17 19.05 З 1
{3}
н/о н/о +25.2 +16.0 57 +29 +29 душно 1013.3 916.3
18 19.05 З 2
{3}
н/о н/о +25.3 +15.2 54 +28 +28 жарко 1012.7 915.8
19 19.05 СЗ 1
{3}
н/о н/о +24.4 +13.8 52 +27 +27 жарко 1012.9 915.7
20 19.05 З 1
{2}
н/о н/о +21.8 +15.1 66 +25 +25 комфорт 1014.3 916.2
21 19.05 штиль 0
{1}
н/о н/о +19.5 +16.6 83 +21 +21 комфорт 1015.4 916.4
22 19.05 штиль 0 н/о н/о +18.4 +17.0 92 +19 +19 1016.4 917.0
23 19.05 штиль 0
{1}
н/о н/о +17.2 +16.0 93 +17 +17 1017.2 917.3
00 20.05 штиль 0
{1}
н/о н/о +16.6 +15.5 93 +16 +16 1017.9 917.7
01 20.05 штиль 0
{3}
н/о н/о +17.5 +15.6 89 +17 +17 1017.9 918.0
02 20.05 В 1
{2}
н/о н/о +17.3 +15.2 87 +18 +18 1018.2 918.2
03 20.05 штиль 0
{2}
н/о н/о +16.8 +15.3 91 +17 +17 1017.9 917.8
04 20.05 штиль 0
{1}
н/о н/о +16.8 +15.7 93 +17 +17 1017.7 917.6
05 20.05 штиль 0
{1}
н/о н/о +16.2 +15.3 94 +16 +16 1017.7 917.4
06 20.05 штиль 0
{1}
н/о н/о +15.8 +15.4 97 +16 +16 1017.4 917.0
07 20.05 В 1
{2}
н/о н/о +15.6 +14.8 95 +17 +17 1017.1 916.7
09 20.05 штиль 0
{1}
н/о н/о +14.0 +13.8 99 +14 +14 1017.9 916.9
10 20.05 штиль 0
{1}
н/о н/о +15.4 +15.4 100 +15 +15 1018.4 917.8 0.2
11 20.05 штиль 0
{1}
н/о н/о +18.7 +16.2 85 +20 +20 1018.0 918.5
12 20.05 штиль 0
{1}
н/о н/о +21.6 +15.8 70 +25 +25 комфорт 1017.4 918.9
13 20.05 Ю 1
{2}
н/о н/о +22.9 +16.2 66 +27 +27 душно 1016.9 918.9
14 20.05 ЮЗ 1
{2}
н/о н/о +23.8 +15.4 59 +27 +27 жарко 1016.5 918.8
15 20.05 ЮЗ 1
{3}
н/о н/о +25.1 +15.8 56 +28 +28 жарко 1015.2 918.0
16 20.05 СЗ 2
{4}
н/о н/о +25.4 +13.3 47 +27 +27 жарко 1014.0 917.0
17 20.05 З 2
{3}
н/о н/о +25.8 +12.1 42 +27 +27 жарко 1013.3 916.5
18 20.05 СЗ 2
{3}
н/о н/о +25.6 +11.0 40 +27 +27 жарко 1013.1 916.3
19 20.05 СЗ 1
{3}
н/о н/о +24.8 +12.8 47 +27 +27 жарко 1013.5 916.4
20 20.05 СЗ 1
{2}
н/о н/о +24.4 +12.7 48 +26 +26 жарко 1013.7 916.4
21 20.05 штиль 0
{1}
н/о н/о +19.5 +15.2 76 +21 +21 комфорт 1015.8 916.8
22 20.05 штиль 0
{1}
н/о н/о +18.4 +15.5 83 +19 +19 1016.4 917.0
23 20.05 штиль 0
{1}
н/о н/о +17.3 +15.5 89 +17 +17 1017.5 917.6
00 21.05 штиль 0
{1}
н/о н/о +16.2 +15.1 93 +16 +16 1018.2 917.9
01 21.05 штиль 0
{1}
н/о н/о +16.1 +14.8 92 +16 +16 1018.6 918.2
02 21.05 штиль 0
{1}
н/о н/о +14.8 +13.7 93 +14 +14 1019.3 918.4
03 21.05 штиль 0
{1}
н/о н/о +15.1 +14.2 94 +15 +15 1019.1 918.3
04 21.05 штиль 0
{1}
н/о н/о +14.5 +13.4 93 +14 +14 1018.7 917.8
05 21.05 штиль 0
{1}
н/о н/о +14.0 +13.3 96 +14 +14 1018.4 917.3
06 21.05 штиль 0 н/о н/о +13.9 +13.5 97 +13 +13 1018.1 917.0
07 21.05 штиль 0 н/о н/о +14.2 +13.9 98 +14 +14 1017.4 916.5
08 21.05 штиль 0 н/о н/о +13.1 +12.8 98 +13 +13 1018.0 916.7
09 21.05 штиль 0 н/о н/о +12.7 +12.7 100 +12 +12 1018.7 917.2
10 21.05 штиль 0 н/о н/о +13.8 +13.8 100 +13 +13 1019.0 917.8
11 21.05 штиль 0
{1}
н/о н/о +17.1 +15.3 89 +17 +17 1018.5 918.4
12 21.05 штиль 0
{1}
н/о н/о +22.4 +16.2 68 +27 +27 душно 1017.2 919.0
13 21.05 З 1
{1}
н/о н/о +24.0 +16.1 61 +27 +27 жарко 1016.6 918.9
14 21.05 СЗ 2
{3}
н/о н/о +25.6 +13.5 47 +28 +28 жарко 1015.6 918.5
15 21.05 З 2
{3}
н/о н/о +26.7 +11.6 39 +28 +28 жарко 1014.5 917.9
16 21.05 СЗ 2
{4}
н/о н/о +26.4 +11.3 39 +28 +28 жарко 1014.0 917.3
17 21.05 СЗ 2
{4}
н/о н/о +26.1 +10.6 38 +27 +27 жарко 1013.6 916.9
18 21.05 З 2
{3}
н/о н/о +26.7 +12.2 41 +28 +28 жарко 1013.1 916.6
19 21.05 З 2
{3}
н/о н/о +26.1 +13.4 45 +28 +28 жарко 1013.2 916.5
20 21.05 З 1
{3}
н/о н/о +24.5 +13.9 52 +27 +27 жарко 1013.9 916.6
21 21.05 штиль 0
{1}
н/о н/о +21.1 +15.4 70 +24 +24 комфорт 1015.5 917.0
22 21.05 штиль 0
{1}
н/о н/о +19.3 +16.3 83 +21 +21 комфорт 1016.6 917.4
23 21.05 В 1
{1}
н/о н/о +18.1 +16.0 88 +20 +20 1017.2 917.6
00 22.05 штиль 0
{1}
н/о н/о +17.3 +15.3 88 +17 +17 1017.6 917.7
01 22.05 штиль 0
{1}
н/о н/о +16.7 +15.2 91 +17 +17 1018.2 918.0
02 22.05 штиль 0
{1}
н/о н/о +16.5 +15.5 94 +16 +16 1018.5 918.2
03 22.05 В 1
{1}
н/о н/о +16.1 +15.2 94 +17 +17 1018.5 918.1
04 22.05 штиль 0
{1}
н/о н/о +14.9 +13.8 93 +15 +15 1018.7 917.9
05 22.05 В 1
{1}
н/о н/о +15.2 +14.2 94 +16 +16 1018.0 917.4
06 22.05 штиль 0
{1}
н/о н/о +14.0 +13.1 94 +14 +14 1017.9 916.9
07 22.05 штиль 0
{1}
н/о н/о +13.7 +13.3 97 +13 +13 1017.9 916.8
08 22.05 штиль 0
{1}
н/о н/о +13.8 +13.5 98 +13 +13 1018.0 916.9 0.2
09 22.05 штиль 0
{1}
н/о н/о +13.3 +12.9 97 +13 +13 1018.5 917.2
10 22.05 штиль 0
{1}
н/о н/о +15.8 +14.2 90 +16 +16 1018.3 917.8
11 22.05 штиль 0
{1}
н/о н/о +19.5 +15.6 78 +21 +21 комфорт 1017.6 918.4
12 22.05 В 1
{1}
н/о н/о +22.9 +12.7 53 +26 +26 жарко 1016.8 918.8
13 22.05 ЮЗ 1
{2}
н/о н/о +23.9 +15.7 60 +27 +27 жарко 1016.4 918.7
14 22.05 Ю 1
{2}
н/о н/о +25.2 +14.8 52 +28 +28 жарко 1015.4 918.2
15 22.05 Ю 1
{2}
н/о н/о +25.6 +14.2 49 +28 +28 жарко 1014.6 917.6
16 22.05 З 1
{3}
н/о н/о +26.7 +12.8 42 +28 +28 жарко 1013.4 916.9
17 22.05 З 2
{4}
н/о н/о +27.1 +12.5 40 +29 +29 жарко 1012.3 916.0
18 22.05 З 2
{4}
н/о н/о +26.5 +12.0 40 +28 +28 жарко 1012.3 915.8
19 22.05 СЗ 1
{3}
н/о н/о +26.3 +13.0 44 +28 +28 жарко 1012.1 915.6
20 22.05 Ю 1
{2}
н/о н/о +23.5 +14.4 57 +26 +26 жарко 1013.4 915.9
21 22.05 штиль 0
{1}
н/о н/о +20.9 +15.1 69 +24 +24 комфорт 1014.9 916.4
22 22.05 штиль 0
{1}
н/о н/о +18.6 +15.7 83 +19 +19 1016.3 916.9
23 22.05 штиль 0
{1}
н/о н/о +18.6 +15.9 84 +19 +19 1016.7 917.3
00 23.05 штиль 0
{1}
н/о н/о +17.1 +15.1 88 +17 +17 1017.6 917.6
01 23.05 штиль 0 н/о н/о +16.4 +14.5 89 +16 +16 1017.9 917.7
02 23.05 штиль 0 н/о н/о +15.9 +14.7 93 +16 +16 1018.0 917.6
03 23.05 штиль 0
{1}
н/о н/о +14.9 +14.0 94 +15 +15 1018.3 917.5
04 23.05 штиль 0 н/о н/о +14.5 +13.9 96 +14 +14 1018.0 917.1
05 23.05 штиль 0
{1}
н/о н/о +13.6 +13.2 97 +13 +13 1017.7 916.6
06 23.05 штиль 0
{1}
н/о н/о +13.1 +12.6 97 +13 +13 1017.7 916.4
08 23.05 штиль 0
{1}
н/о н/о +12.8 +12.3 97 +12 +12 1017.7 916.3
09 23.05 штиль 0
{1}
н/о н/о +13.0 +12.5 97 +12 +12 1018.2 916.8
10 23.05 штиль 0 н/о н/о +14.8 +14.5 98 +14 +14 1018.5 917.7
11 23.05 штиль 0 н/о н/о +18.4 +14.2 77 +19 +19 1017.9 918.3
12 23.05 штиль 0
{1}
н/о н/о +21.3 +14.9 67 +24 +24 комфорт 1017.2 918.6
13 23.05 С 1
{2}
н/о н/о +25.8 +12.6 44 +28 +28 жарко 1015.3 918.3
14 23.05 З 1
{3}
н/о н/о +25.9 +12.0 42 +27 +27 жарко 1014.7 917.8
15 23.05 СЗ 2
{4}
н/о н/о +26.5 +11.0 38 +27 +27 жарко 1013.6 917.0
16 23.05 СЗ 2
{4}
н/о н/о +27.0 +11.8 39 +28 +28 жарко 1012.3 916.0
17 23.05 СЗ 2
{4}
н/о н/о +26.7 +12.1 40 +28 +28 жарко 1011.8 915.4
18 23.05 СЗ 2
{4}
н/о н/о +26.5 +12.0 40 +28 +28 жарко 1011.3 914.9
19 23.05 СЗ 1
{4}
н/о н/о +26.1 +13.0 44 +28 +28 жарко 1011.4 914.9
20 23.05 С 1
{2}
н/о н/о +24.1 +14.3 54 +27 +27 жарко 1012.5 915.3
21 23.05 штиль 0
{1}
н/о н/о +21.1 +15.6 71 +24 +24 комфорт 1013.6 915.3
22 23.05 штиль 0 н/о н/о +19.8 +16.4 81 +22 +22 комфорт 1014.7 915.9
23 23.05 В 1
{1}
н/о н/о +19.2 +15.9 81 +22 +22 комфорт 1015.3 916.2
00 24.05 штиль 0
{1}
н/о н/о +17.7 +15.6 88 +18 +18 1015.9 916.3
01 24.05 штиль 0
{1}
н/о н/о +17.7 +15.5 87 +18 +18 1016.0 916.4
02 24.05 В 1
{1}
н/о н/о +17.5 +15.2 86 +19 +19 1016.0 916.3
04 24.05 В 1
{1}
н/о н/о +16.6 +14.8 89 +18 +18 1015.3 915.4
05 24.05 В 1
{1}
н/о н/о +16.8 +14.9 89 +18 +18 1014.9 915.1
06 24.05 штиль 0
{1}
н/о н/о +16.1 +15.0 93 +16 +16 1015.0 915.0
07 24.05 штиль 0
{1}
н/о н/о +16.2 +14.5 90 +16 +16 1014.5 914.5
08 24.05 штиль 0
{1}
н/о н/о +16.0 +14.8 93 +16 +16 1014.8 914.7
09 24.05 штиль 0
{1}
н/о н/о +16.6 +14.6 88 +16 +16 1015.2 915.3
10 24.05
{1}
н/о н/о +20.1 +15.2 73 1014.4 915.7
11 24.05 СЗ 1
{2}
н/о н/о +21.5 +16.0 71 +25 +25 комфорт 1014.4 916.2 0.2
12 24.05 СЗ 2
{3}
н/о н/о +23.3 +16.2 64 +28 +28 душно 1014.5 916.8
13 24.05 СЗ 2
{3}
н/о н/о +24.4 +16.2 60 +28 +28 душно 1014.1 916.8
14 24.05 СЗ 2
{4}
н/о н/о +25.4 +16.3 57 +29 +29 душно 1013.4 916.5
15 24.05 СЗ 2
{4}
н/о н/о +26.2 +16.3 54 +30 +30 душно 1012.1 915.5
16 24.05 З 2
{4}
н/о н/о +26.5 +15.5 51 +30 +30 душно 1011.0 914.6
17 24.05 СЗ 2
{5}
н/о н/о +27.1 +16.5 52 +31 +31 душно 1010.4 914.3
18 24.05 СЗ 2
{4}
н/о н/о +26.6 +16.1 53 +30 +30 душно 1010.0 913.8
19 24.05 С 2
{4}
н/о н/о +26.4 +15.7 52 +30 +30 душно 1009.9 913.6
20 24.05 СЗ 2
{4}
н/о н/о +25.1 +14.7 52 +28 +28 жарко 1010.5 913.8
21 24.05 СЗ 2
{3}
н/о н/о +23.7 +14.2 55 +26 +26 жарко 1011.2 914.0
22 24.05 СЗ 1
{2}
н/о н/о +23.1 +14.1 57 +27 +27 душно 1011.8 914.3
23 24.05 СЗ 1
{3}
н/о н/о +21.5 +14.9 66 +25 +25 комфорт 1012.9 914.8
00 25.05 СЗ 1
{1}
н/о н/о +21.4 +14.6 65 +24 +24 комфорт 1013.2 915.0
01 25.05 СЗ 1
{2}
н/о н/о +20.7 +14.3 67 +25 +25 комфорт 1013.5 915.1
02 25.05 СЗ 1
{2}
н/о н/о +20.0 +13.8 67 +23 +23 комфорт 1013.8 915.1
03 25.05 СЗ 1
{2}
н/о н/о +19.7 +13.5 67 +23 +23 комфорт 1013.6 914.9
04 25.05 СЗ 1
{2}
н/о н/о +18.9 +13.8 72 +21 +21 комфорт 1013.7 914.7
05 25.05 З 1
{2}
н/о н/о +18.2 +14.6 80 +20 +20 1014.4 915.1
06 25.05 ЮЗ 1
{2}
н/о н/о +18.2 +16.0 87 +20 +20 1014.4 915.1
07 25.05 ЮЗ 1
{2}
н/о н/о +17.2 +16.3 94 +19 +19 1014.9 915.2
09 25.05 ЮЗ 1
{2}
н/о н/о +15.5 +11.3 76 +17 +17 1016.5 916.1
10 25.05 штиль 0
{2}
н/о н/о +16.3 +12.3 77 +16 +16 1017.0 916.8
11 25.05 ЮЗ 1
{2}
н/о н/о +17.7 +12.9 73 +19 +19 1016.8 917.1
12 25.05 ЮЗ 2
{3}
н/о н/о +18.5 +12.0 66 +20 +20 1017.4 917.9
13 25.05 ЮЗ 1
{3}
н/о н/о +20.2 +11.0 55 +23 +23 комфорт 1017.1 918.2
14 25.05 ЮЗ 1
{3}
н/о н/о +21.0 +11.7 55 +24 +24 комфорт 1016.2 917.6
15 25.05 Ю 1
{3}
н/о н/о +21.2 +12.7 58 +23 +23 комфорт 1015.4 917.0
16 25.05 Ю 1
{2}
н/о н/о +22.1 +13.1 57 +25 +25 комфорт 1014.2 916.2

 

Местоположение метеостанции Формига (Минас-Жерайс, Бразилия): широта -20.45 долгота -45.45 высота над уровнем моря 880 м.

В архиве по умолчанию представлена погода в Формиге за последнюю неделю. Архивные данные за месяц целиком и за предыдущие месяцы, начиная с января 2011 года, Вы можете получить, выбрав интересующий диапазон дат из раскрывающегося списка и нажав кнопку "Ввод!".


*Определитесь, кто Вы:
робот инопланетянин человек

Внимание! Время в таблицах - всемирное. Для получения местного времени необходимо прибавить поправку, которая равна -3 ч.

Смотрите также архив погоды в соседних городах и на ближайших метеорологических станциях:

Погода в Бамбуи (Минас-Жерайс, Бразилия) (75 км)
Погода в Лаврасе (Минас-Жерайс, Бразилия) (99 км)
Погода в Дорис-ду-Индае (Минас-Жерайс, Бразилия) (109 км)
Погода в Варжинье (Минас-Жерайс, Бразилия) (125 км)
Погода в Флорестале (Минас-Жерайс, Бразилия) (125 км)
Погода в Пассосе (Минас-Жерайс, Бразилия) (127 км)
Погода в Сан-Жуан-дел-Рее (Минас-Жерайс, Бразилия) (144 км)
Погода в Парке Рола-Мока (Минас-Жерайс, Бразилия) (156 км)
Погода в Белу-Оризонти - Пампулья (Минас-Жерайс, Бразилия) (167 км)
Погода в Сет-Лагоасе (Мату-Гросу-ду-Сул, Бразилия) (173 км)

Пояснения к столбцам:

Ветер - указаны скорость ветра в м/с - средняя за 10 мин, порывы в срок и между сроками (в фигурных скобках) и направление, откуда дует ветер: С - северный, СВ - северо-восточный, В - восточный, ЮВ - юго-восточный, Ю - южный, ЮЗ - юго-западный, З - западный, СЗ - северо-западный.
Видимость - горизонтальная дальность видимости в метрах или километрах. При видимости от 1 до 10 км при отсутствии осадков обычно наблюдается дымка, при ухудшении видимости до 1 км и менее - туман. В сухую погоду видимость может ухудшаться дымом, пылью или мглою.
Явления - указаны атмосферные явления, наблюдавшиеся в срок или в последний час перед сроком; фигурными скобками обозначены явления, наблюдавшиеся между сроками (за 1-3 часа до срока); квадратными скобками обозначены град или гололедные отложения с указанием их диаметра в мм.
Облачность - указаны через наклонную черту общая и нижняя облачность в баллах и высота нижней границы облаков в метрах; квадратными скобками обозначены формы облаков: Ci - перистые, Cs - перисто-слоистые, Cc - перисто-кучевые, Ac - высококучевые, As - высокослоистые, Sc - слоисто-кучевые, Ns - слоисто-дождевые, Cu - кучевые, Cb - кучево-дождевые. Подробнее классификацию облаков см. в Атласе облаков (PDF).
T - Температура воздуха - температура, измеренная на высоте 2 м над землей.
Td - Температура точки росы - температура, при понижении до которой содержащийся в воздухе водяной пар достигнет насыщения.
f - Относительная влажность воздуха - влажноcть воздуха, измеренная на высоте 2 м над землей.
Te - Эффективная температура - температура, которую ощущает одетый по сезону человек в тени. Характеристика душности погоды. При расчете учитывается влияние влажности воздуха и скорости ветра на теплоощущения человека.
Tes - Эффективная температура на солнце - температура, которую ощущает человек, с поправкой на солнечный нагрев. Характеристика знойности погоды. Зависит от высоты солнца над горизонтом, облачности и скорости ветра. Ночью, в пасмурную погоду, а также при ветре 12 м/с и более поправка равна нулю.
P - Атмосферное давление - приведенное к уровню моря атмосферное давление.
Po - Атмосферное давление - измеренное на уровне метеостанции атмосферное давление.
Tmin - Минимальная температура - минимум температуры воздуха на высоте 2 м над землей.
Tmax - Максимальная температура - максимум температуры воздуха на высоте 2 м над землей.
R - Количество осадков - Количество выпавших осадков за период времени, мм. При наведении курсора мыши на число - период времени, за который выпало указанное количество осадков.
R24 - Количество осадков - Количество выпавших осадков за 24 часа, мм.
S - Снежный покров - Высота снежного покрова, см. При наведении курсора мыши на число - состояние снежного покрова и степень покрытия местности в баллах.